When you browse on this site, cookies collect data to enhance your experience and personalize the content and advertising you see.
Visit our Privacy Policy to learn more. By continuing to use the site, you agree to this use of cookies and data.
  • In Lithuania
  • List of Countries
  • For 7 days
  • Water Temperature
  • Weather Map
  • Weather Widgets
  • user-avatar
    Login

    Hourly Weather Innsbruck

    Today, 18 August, Sunday

    Time Temperature Precipitation Wind Pressure Humidity
    00:00 +9°C° 0 mm 1 mps 598 mmHg 84%
    01:00 +9°C° 0 mm 2 mps 598 mmHg 85%
    02:00 +9°C° 0 mm 2 mps 598 mmHg 84%
    03:00 +9°C° 0 mm 2 mps 598 mmHg 83%
    04:00 +9°C° 0 mm 2 mps 598 mmHg 83%
    05:00 +10°C° 0 mm 2 mps 598 mmHg 81%
    06:00 +12°C° 0 mm 2 mps 599 mmHg 79%
    07:00 +13°C° 0 mm 2 mps 599 mmHg 77%
    08:00 +15°C° 0 mm 1 mps 600 mmHg 69%
    09:00 +18°C° 0 mm 1 mps 601 mmHg 61%
    10:00 +21°C° 0 mm 1 mps 602 mmHg 54%
    11:00 +21°C° 0 mm 1 mps 602 mmHg 51%
    12:00 +21°C° 0 mm 2 mps 602 mmHg 48%
    13:00 +23°C° 0 mm 2 mps 602 mmHg 45%
    14:00 +21°C° 0.1 mm 2 mps 602 mmHg 49%
    15:00 +20°C° 0.1 mm 2 mps 601 mmHg 53%
    16:00 +19°C° 0.1 mm 2 mps 600 mmHg 57%
    17:00 +18°C° 0.1 mm 1 mps 600 mmHg 65%
    18:00 +16°C° 0.1 mm 1 mps 599 mmHg 73%
    19:00 +14°C° 0.1 mm 1 mps 599 mmHg 80%
    20:00 +13°C° 0.3 mm 1 mps 599 mmHg 84%
    21:00 +12°C° 0.3 mm 2 mps 598 mmHg 88%
    22:00 +10°C° 0.3 mm 2 mps 598 mmHg 92%
    23:00 +10°C° 0.3 mm 2 mps 598 mmHg 94%

    Tomorrow, 19 August, Monday

    Time Temperature Precipitation Wind Pressure Humidity
    00:00 +10°C° 0.3 mm 1 mps 598 mmHg 95%
    01:00 +10°C° 0.3 mm 1 mps 598 mmHg 96%
    02:00 +10°C° 0.1 mm 1 mps 598 mmHg 96%
    03:00 +10°C° 0.1 mm 1 mps 598 mmHg 96%
    04:00 +10°C° 0.1 mm 1 mps 599 mmHg 95%
    05:00 +11°C° 0.4 mm 1 mps 599 mmHg 95%
    06:00 +11°C° 0.4 mm 1 mps 599 mmHg 94%
    07:00 +11°C° 0.4 mm 1 mps 600 mmHg 93%
    08:00 +12°C° 0.3 mm 1 mps 600 mmHg 90%
    09:00 +13°C° 0.3 mm 1 mps 601 mmHg 87%
    10:00 +13°C° 0.3 mm 1 mps 601 mmHg 84%
    11:00 +14°C° 0.5 mm 1 mps 601 mmHg 79%
    12:00 +15°C° 0.5 mm 1 mps 602 mmHg 75%
    13:00 +16°C° 0.5 mm 1 mps 602 mmHg 70%
    14:00 +16°C° 1 mm 1 mps 602 mmHg 74%
    15:00 +15°C° 1 mm 1 mps 601 mmHg 78%
    16:00 +14°C° 1 mm 1 mps 601 mmHg 82%
    17:00 +13°C° 1.5 mm 1 mps 601 mmHg 86%
    18:00 +12°C° 1.5 mm 1 mps 600 mmHg 91%
    19:00 +11°C° 1.5 mm 1 mps 600 mmHg 95%
    20:00 +11°C° 0.4 mm 1 mps 600 mmHg 95%
    21:00 +11°C° 0.4 mm 1 mps 600 mmHg 94%
    22:00 +11°C° 0.4 mm 1 mps 600 mmHg 93%
    23:00 +10°C° 0.2 mm 1 mps 600 mmHg 93%

    Day after tomorrow, 20 August, Tuesday

    Time Temperature Precipitation Wind Pressure Humidity
    00:00 +10°C° 0.2 mm 1 mps 600 mmHg 93%
    01:00 +10°C° 0.2 mm 1 mps 600 mmHg 93%
    02:00 +10°C° 0.3 mm 1 mps 600 mmHg 93%
    03:00 +10°C° 0.3 mm 1 mps 600 mmHg 94%
    04:00 +10°C° 0.3 mm 1 mps 600 mmHg 94%
    05:00 +10°C° 0.6 mm 1 mps 600 mmHg 94%
    06:00 +9°C° 0.6 mm 0 mps 600 mmHg 95%
    07:00 +9°C° 0.6 mm 0 mps 601 mmHg 95%
    08:00 +11°C° 0.3 mm 1 mps 601 mmHg 93%
    09:00 +12°C° 0.3 mm 1 mps 601 mmHg 92%
    10:00 +12°C° 0.3 mm 1 mps 601 mmHg 90%
    11:00 +13°C° 0.5 mm 1 mps 602 mmHg 85%
    12:00 +15°C° 0.5 mm 2 mps 602 mmHg 80%
    13:00 +16°C° 0.5 mm 2 mps 603 mmHg 75%
    14:00 +15°C° 0.8 mm 2 mps 603 mmHg 78%
    15:00 +15°C° 0.8 mm 2 mps 602 mmHg 81%
    16:00 +14°C° 0.8 mm 2 mps 602 mmHg 84%
    17:00 +13°C° 0.7 mm 1 mps 602 mmHg 89%
    18:00 +12°C° 0.7 mm 1 mps 602 mmHg 93%
    19:00 +11°C° 0.7 mm 1 mps 601 mmHg 97%
    20:00 +10°C° 0.4 mm 1 mps 601 mmHg 97%
    21:00 +9°C° 0.4 mm 1 mps 602 mmHg 98%
    22:00 +9°C° 0.4 mm 1 mps 602 mmHg 98%
    23:00 +8°C° 0.2 mm 1 mps 602 mmHg 98%

    21 August, Wednesday

    Time Temperature Precipitation Wind Pressure Humidity
    00:00 +8°C° 0.2 mm 1 mps 601 mmHg 98%
    01:00 +8°C° 0.2 mm 1 mps 601 mmHg 98%
    02:00 +7°C° 0.2 mm 1 mps 601 mmHg 98%
    03:00 +6°C° 0.2 mm 2 mps 601 mmHg 98%
    04:00 +6°C° 0.2 mm 2 mps 601 mmHg 98%
    05:00 +6°C° 0.1 mm 2 mps 601 mmHg 98%
    06:00 +7°C° 0.1 mm 1 mps 601 mmHg 97%
    07:00 +7°C° 0.1 mm 1 mps 601 mmHg 97%
    08:00 +8°C° 0 mm 1 mps 602 mmHg 93%
    09:00 +9°C° 0 mm 1 mps 602 mmHg 89%
    10:00 +10°C° 0 mm 1 mps 602 mmHg 85%
    11:00 +11°C° 0.1 mm 1 mps 603 mmHg 81%
    12:00 +12°C° 0.1 mm 2 mps 603 mmHg 77%
    13:00 +13°C° 0.1 mm 2 mps 603 mmHg 72%
    14:00 +13°C° 0.3 mm 2 mps 603 mmHg 74%
    15:00 +13°C° 0.3 mm 2 mps 603 mmHg 76%
    16:00 +13°C° 0.3 mm 2 mps 603 mmHg 77%
    17:00 +12°C° 0.3 mm 1 mps 602 mmHg 82%
    18:00 +11°C° 0.3 mm 1 mps 602 mmHg 88%
    19:00 +10°C° 0.3 mm 1 mps 601 mmHg 93%
    20:00 +9°C° 0.1 mm 1 mps 601 mmHg 94%
    21:00 +8°C° 0.1 mm 1 mps 601 mmHg 94%
    22:00 +8°C° 0.1 mm 1 mps 601 mmHg 95%
    23:00 +8°C° 0 mm 1 mps 601 mmHg 94%

    22 August, Thursday

    Time Temperature Precipitation Wind Pressure Humidity
    00:00 +8°C° 0 mm 1 mps 601 mmHg 93%
    01:00 +8°C° 0 mm 1 mps 601 mmHg 92%
    02:00 +8°C° 0 mm 1 mps 600 mmHg 92%
    03:00 +8°C° 0 mm 1 mps 600 mmHg 91%
    04:00 +8°C° 0 mm 1 mps 600 mmHg 91%
    05:00 +9°C° 0 mm 1 mps 601 mmHg 88%
    06:00 +10°C° 0 mm 1 mps 601 mmHg 86%
    07:00 +11°C° 0 mm 1 mps 602 mmHg 84%
    08:00 +13°C° 0.1 mm 1 mps 602 mmHg 76%
    09:00 +15°C° 0.1 mm 1 mps 603 mmHg 69%
    10:00 +18°C° 0.1 mm 1 mps 604 mmHg 61%
    11:00 +18°C° 0.6 mm 1 mps 604 mmHg 60%
    12:00 +18°C° 0.6 mm 1 mps 604 mmHg 59%
    13:00 +19°C° 0.6 mm 1 mps 604 mmHg 58%
    14:00 +18°C° 1 mm 1 mps 604 mmHg 64%
    15:00 +16°C° 1 mm 1 mps 603 mmHg 70%
    16:00 +15°C° 1 mm 1 mps 603 mmHg 76%
    17:00 +14°C° 0.8 mm 1 mps 602 mmHg 80%
    18:00 +13°C° 0.8 mm 1 mps 602 mmHg 85%
    19:00 +11°C° 0.8 mm 1 mps 602 mmHg 90%
    20:00 +10°C° 0.1 mm 1 mps 601 mmHg 91%
    21:00 +8°C° 0.1 mm 0 mps 601 mmHg 92%
    22:00 +7°C° 0.1 mm 0 mps 601 mmHg 93%
    23:00 +7°C° 0 mm 0 mps 601 mmHg 93%

    23 August, Friday

    Time Temperature Precipitation Wind Pressure Humidity
    00:00 +7°C° 0 mm 0 mps 601 mmHg 92%
    01:00 +7°C° 0 mm 0 mps 601 mmHg 92%
    02:00 +7°C° 0 mm 0 mps 601 mmHg 92%
    03:00 +7°C° 0 mm 0 mps 601 mmHg 92%
    04:00 +7°C° 0 mm 0 mps 600 mmHg 93%
    05:00 +8°C° 0 mm 0 mps 601 mmHg 91%
    06:00 +8°C° 0 mm 0 mps 601 mmHg 90%
    07:00 +9°C° 0 mm 0 mps 602 mmHg 88%
    08:00 +11°C° 0 mm 0 mps 603 mmHg 82%
    09:00 +13°C° 0 mm 1 mps 603 mmHg 77%
    10:00 +15°C° 0 mm 1 mps 604 mmHg 71%
    11:00 +16°C° 0.1 mm 1 mps 604 mmHg 66%
    12:00 +18°C° 0.1 mm 1 mps 604 mmHg 60%
    13:00 +18°C° 0.1 mm 2 mps 605 mmHg 55%
    14:00 +18°C° 0.5 mm 2 mps 604 mmHg 60%
    15:00 +17°C° 0.5 mm 2 mps 604 mmHg 64%
    16:00 +17°C° 0.5 mm 2 mps 604 mmHg 68%
    17:00 +15°C° 0.7 mm 1 mps 603 mmHg 75%
    18:00 +14°C° 0.7 mm 1 mps 602 mmHg 83%
    19:00 +12°C° 0.7 mm 1 mps 601 mmHg 90%
    20:00 +12°C° 0.2 mm 1 mps 601 mmHg 90%
    21:00 +11°C° 0.2 mm 1 mps 601 mmHg 89%
    22:00 +10°C° 0.2 mm 1 mps 601 mmHg 89%
    23:00 +10°C° 0 mm 1 mps 601 mmHg 88%
    Show more